Temperature
13 13 14 14 12 10 12 12 12 14 15 16 17 17 17 17 17 17 17 18 18 18 18 17 17 17 17 17 17 17 17 17 17 17 17 17 17 17 17 17 16 16 16 16 16 15 15 15 15
13 13 13 13 10 11 12 12 12 14 15 16 17 17 16 16 17 17 17 17 18 17 17 17 17 17 17 17 16 16 17 17 17 17 17 17 16 16 16 16 16 16 16 16 15 15 15 15 15
12 13 13 10 10 11 13 13 12 13 15 15 15 16 15 16 16 16 16 17 17 17 17 16 16 16 16 16 16 16 16 16 16 16 16 16 16 16 16 16 16 15 15 15 15 15 15 15 15
12 13 12 10 11 11 12 12 12 12 14 14 14 14 15 15 15 15 16 16 16 17 16 16 16 16 16 16 16 16 16 16 16 16 16 16 16 16 16 16 15 15 15 15 15 15 14 14 14
12 12 10 10 10 11 11 12 12 12 12 13 13 12 14 14 15 15 15 16 16 16 16 16 16 16 16 16 16 16 16 16 16 16 16 16 16 16 15 15 15 15 15 15 15 14 14 14 14
12 9 9 10 10 10 10 12 12 11 11 12 12 12 13 14 15 15 15 15 15 15 15 15 15 15 15 16 16 16 15 15 15 15 15 15 15 15 15 15 15 15 15 14 14 14 14 14 14
10 8 9 9 9 10 11 11 11 10 10 12 12 11 13 14 14 14 14 14 14 14 15 15 15 15 15 15 15 15 15 15 15 15 15 15 15 15 15 15 15 14 14 14 14 14 14 14 14
10 7 8 8 9 10 10 11 11 11 11 12 12 11 12 13 13 13 13 13 14 14 14 14 15 15 15 15 15 15 15 15 15 15 15 15 14 14 14 14 14 14 14 14 14 13 13 13 13
10 7 7 8 9 9 9 9 10 10 10 11 11 12 12 12 12 12 13 13 13 13 13 13 14 14 14 14 14 15 15 15 14 14 14 14 14 14 14 14 14 14 14 14 13 13 13 13 13
9 7 8 9 9 8 9 9 9 9 9 10 10 11 11 11 11 11 12 12 12 13 13 13 13 13 14 14 14 14 14 14 14 14 14 14 14 14 14 13 13 13 13 13 13 13 13 13 13
8 7 8 8 9 8 8 8 9 8 8 9 10 10 10 10 11 11 11 11 11 12 12 12 12 13 13 13 13 14 14 14 14 14 14 13 13 13 13 13 13 13 13 13 13 13 13 12 12
7 7 7 8 8 8 8 8 8 8 9 10 9 10 10 10 10 10 10 10 11 11 12 12 12 12 12 12 13 13 13 13 13 13 13 13 13 13 13 13 13 13 13 13 13 13 12 12 12
6 6 7 7 7 7 7 7 7 8 9 9 9 9 10 10 10 10 10 10 10 10 11 11 12 12 12 12 12 12 13 13 13 13 13 13 13 13 13 12 12 12 13 12 12 12 12 12 12
6 6 6 7 7 7 6 7 7 8 9 9 9 9 9 9 9 9 9 10 10 10 11 11 11 11 12 12 12 12 12 12 12 12 12 12 12 12 12 12 12 12 12 12 12 12 12 12 12
6 5 6 6 6 6 6 6 7 9 9 8 8 8 8 8 9 9 9 9 9 10 10 10 10 11 11 11 11 11 11 12 12 12 12 12 12 12 12 12 12 12 12 12 12 12 12 12 11
5 5 5 6 6 6 6 6 7 8 8 7 8 8 8 8 8 9 9 9 9 9 10 10 10 10 11 11 11 11 11 11 11 11 11 11 12 12 11 12 11 12 11 11 11 12 11 11 11
4 4 4 5 6 6 5 5 6 8 7 7 7 7 7 8 8 9 9 9 9 9 9 10 10 10 10 10 10 11 11 11 11 11 11 11 11 11 11 11 11 11 11 11 11 11 11 11 11
5 4 4 4 5 5 5 5 6 7 7 6 7 7 7 8 8 8 9 9 9 9 9 9 9 9 10 10 10 10 10 10 10 10 11 11 10 10 11 11 11 11 11 11 11 11 11 11 11
5 4 4 4 5 5 4 5 6 6 6 6 6 7 7 8 8 8 8 9 9 9 9 9 9 9 9 9 9 9 9 10 10 10 10 10 10 10 10 10 10 11 11 11 10 10 10 10 10
4 4 4 4 5 5 4 4 5 5 6 6 6 7 7 7 8 8 8 8 8 8 8 9 9 9 9 9 9 9 9 9 9 9 9 10 10 10 10 10 10 10 10 10 10 10 10 10 10
5 4 4 4 4 4 4 5 6 6 6 6 7 7 7 7 7 8 8 8 8 8 8 8 8 9 9 9 9 9 9 9 9 9 9 9 9 9 9 10 10 10 10 10 10 10 10 10 10
5 5 5 4 3 3 4 4 5 5 5 6 6 7 7 7 7 7 8 8 8 8 8 8 8 8 9 9 8 8 8 8 8 8 9 9 9 9 9 9 9 10 10 10 10 10 10 10 10
5 5 4 4 3 3 3 3 4 4 5 6 6 7 7 7 7 7 7 8 8 8 8 8 8 8 8 8 8 8 8 8 8 8 8 9 9 9 9 9 9 9 10 10 10 10 10 10 10
5 4 4 3 2 3 3 3 4 4 5 6 6 7 7 7 7 7 7 7 8 8 7 7 7 8 8 8 8 8 8 8 8 8 8 8 8 8 8 9 9 9 9 9 10 10 10 10 10
4 3 3 3 2 3 3 3 4 5 5 5 5 6 7 7 7 7 7 7 7 7 7 7 7 7 7 7 8 8 8 8 8 8 8 8 8 8 8 8 9 9 9 9 9 9 9 9 9
4 3 3 4 3 3 3 3 4 5 5 5 6 6 6 7 7 7 7 7 7 7 7 7 7 7 7 7 7 7 7 7 7 7 7 8 8 8 8 8 8 9 9 9 9 9 9 9 9
4 3 3 2 1 1 2 2 3 5 5 5 5 6 6 6 6 6 6 6 6 6 7 7 7 7 7 7 7 7 7 7 7 7 7 7 8 8 8 8 8 9 9 9 9 9 9 9 9
4 3 1 1 2 3 3 2 3 4 5 5 4 5 5 6 6 6 6 6 6 6 6 6 6 6 6 6 6 6 7 7 7 7 7 7 7 8 8 8 8 8 8 8 9 9 9 9 9
3 3 2 1 1 2 2 4 4 4 4 4 4 5 5 5 5 5 5 6 6 6 6 6 6 6 6 6 6 6 6 6 7 7 7 7 7 7 8 8 8 8 8 8 8 8 9 9 9
3 3 2 2 1 1 1 4 5 4 4 4 4 5 5 5 5 5 5 5 5 5 5 5 5 5 6 6 6 6 6 6 7 6 6 7 7 7 7 7 8 8 8 8 8 8 8 9 9
Wind_Speed
8 5 3 4 5 2 4 5 3 3 3 3 3 3 3 2 2 3 4 4 6 3 2 1 5 9 12 13 14 15 15 16 16 16 16 17 18 18 18 18 17 17 17 16 16 16 16 16 16
4 2 4 4 4 3 6 5 4 3 4 6 4 2 1 2 2 2 5 6 5 3 3 2 1 5 10 12 13 15 15 15 16 16 16 16 17 17 18 18 17 17 16 16 16 16 16 16 16
3 4 4 4 4 6 4 1 3 5 5 5 5 3 1 2 3 3 5 6 3 4 4 3 1 2 6 10 11 13 14 15 15 15 16 16 17 17 17 17 17 17 16 16 16 16 16 16 16
3 4 4 2 6 6 3 3 4 5 6 4 3 5 3 2 2 3 6 4 3 4 5 4 2 2 3 6 8 10 12 14 14 15 15 16 16 16 16 16 17 17 17 17 17 16 16 16 16
4 4 2 2 6 4 3 4 3 4 5 6 4 4 4 2 2 4 5 4 4 4 4 5 4 1 2 4 7 8 9 11 13 14 15 16 16 17 16 16 16 17 17 17 17 17 16 16 16
4 4 3 5 6 4 3 4 2 4 4 5 4 4 5 2 6 7 6 5 4 4 4 4 4 3 1 2 5 7 8 9 10 12 14 15 15 16 16 16 16 16 18 18 18 17 17 16 16
4 4 4 4 4 3 2 3 0 3 5 5 3 4 6 5 6 6 5 4 4 4 4 4 3 2 1 1 3 6 6 7 8 9 11 12 14 15 16 16 17 17 17 18 19 18 17 16 16
4 4 2 3 4 4 2 4 1 3 7 5 1 3 6 7 8 7 6 4 4 3 3 3 3 2 1 2 2 4 6 6 7 8 9 10 12 14 14 15 16 16 17 18 19 18 17 16 16
3 3 4 5 5 4 2 4 5 4 5 5 4 5 8 9 8 6 6 5 4 4 3 3 3 3 2 1 2 3 6 7 7 7 7 8 8 10 12 13 15 15 16 18 19 18 17 16 15
3 3 6 3 2 3 4 4 6 5 7 6 7 8 8 7 7 6 6 7 6 6 5 3 3 2 2 2 1 2 4 6 5 6 6 6 6 7 8 11 14 15 15 17 18 18 16 13 11
2 4 3 3 3 4 5 6 4 5 8 8 10 12 10 9 8 8 7 7 7 6 5 4 4 3 2 1 1 1 2 4 4 6 6 6 6 6 7 7 9 11 12 10 12 12 10 10 9
0 3 3 4 4 5 6 6 6 8 11 10 11 12 10 11 10 9 9 8 7 6 6 5 5 3 3 2 1 2 2 3 4 5 7 7 4 4 5 5 5 6 7 7 7 7 9 10 10
1 4 5 7 9 8 8 9 9 11 13 13 12 10 10 10 10 10 9 8 7 7 7 6 6 5 3 3 2 2 3 4 5 6 7 8 5 4 4 4 5 6 7 7 7 7 8 8 8
3 5 8 8 7 5 8 11 8 11 8 9 10 10 10 10 11 10 9 8 8 8 7 6 6 6 5 4 4 4 4 5 6 6 7 8 7 6 5 5 5 5 7 8 8 8 8 7 7
3 5 7 5 5 3 5 10 9 10 7 10 11 11 11 10 9 10 10 10 9 9 7 7 6 6 5 4 5 4 4 5 5 6 8 9 9 8 6 5 5 6 7 8 7 7 6 7 7
2 3 5 5 3 3 2 11 10 7 7 11 12 11 11 10 10 10 9 9 9 8 7 7 5 5 6 5 5 4 4 5 5 6 8 9 10 10 8 6 6 7 7 6 6 7 6 6 7
4 3 6 9 4 3 3 11 13 9 8 11 11 10 10 10 10 9 9 8 8 7 6 6 5 6 7 6 5 5 4 5 6 6 7 9 10 11 9 7 6 8 6 6 7 5 6 7 7
4 5 6 9 6 6 9 14 17 10 8 9 10 9 9 9 10 9 8 7 6 6 6 6 6 6 6 5 4 4 4 4 5 6 7 9 9 11 9 7 7 8 7 6 7 7 5 6 7
5 6 11 11 8 8 12 16 18 10 7 8 7 7 8 10 9 8 6 4 4 5 6 6 6 5 5 4 4 4 5 4 5 6 8 10 10 11 9 7 7 7 8 8 8 6 6 5 6
5 7 9 10 6 7 10 13 12 6 6 6 6 7 8 9 10 9 6 4 4 5 6 6 6 6 5 5 6 5 5 5 6 6 7 9 10 11 10 9 8 8 7 8 9 8 6 5 6
6 6 7 9 10 5 6 8 5 4 4 5 5 5 7 8 9 8 8 6 5 6 6 6 7 6 6 6 4 3 2 2 4 5 6 8 10 11 11 11 9 9 9 10 10 10 9 7 6
6 5 7 7 6 5 4 5 6 5 7 6 6 6 8 9 8 8 8 8 7 7 6 7 7 7 6 6 6 7 6 6 6 7 7 8 9 11 11 11 10 10 9 10 11 10 8 9 8
6 6 6 5 3 3 2 2 8 4 5 7 7 7 8 8 8 9 8 8 7 6 6 7 7 6 5 6 8 8 7 7 5 6 7 8 8 10 10 10 10 10 9 11 11 10 10 9 8
5 4 2 2 2 2 2 2 6 4 4 6 7 8 9 9 9 9 8 8 7 6 6 6 6 6 5 6 8 9 9 8 7 8 8 8 7 8 10 10 10 9 9 11 11 11 12 11 10
5 5 5 7 5 4 2 2 7 6 5 5 8 10 10 9 9 9 10 9 8 7 7 6 6 7 6 7 8 8 9 9 9 9 9 8 7 7 10 10 10 9 9 10 10 11 12 12 12
2 3 3 2 4 6 4 5 7 6 5 5 6 7 8 10 9 10 10 9 9 8 7 7 7 8 7 7 7 7 7 7 7 8 8 9 9 9 10 10 11 10 10 10 10 10 11 11 12
1 1 3 3 2 4 6 7 9 5 6 6 7 8 9 10 10 10 10 10 10 10 9 8 8 8 7 7 7 7 7 7 7 7 7 8 8 8 9 10 11 11 10 10 10 10 11 11 11
2 4 4 3 1 5 7 5 5 8 8 8 9 10 11 12 12 12 12 12 11 10 9 8 7 8 7 6 6 6 7 7 7 7 7 7 7 7 8 9 10 10 11 11 10 10 10 12 11
2 2 3 2 2 2 5 7 5 8 7 8 10 11 11 12 12 12 12 12 11 10 9 8 7 7 6 6 5 6 7 6 6 6 7 6 5 6 8 8 9 10 10 11 11 11 11 13 12
3 4 5 3 3 3 4 9 6 5 6 6 10 12 12 12 12 12 12 12 11 10 9 8 8 6 5 5 5 5 5 4 4 5 6 5 6 6 6 7 8 9 9 10 11 12 12 13 13
Wind_Direction
349 2 59 59 61 57 240 243 229 267 270 284 272 237 194 194 179 196 304 336 348 356 351 195 188 186 182 179 175 169 164 163 162 161 158 156 154 154 153 151 150 148 145 141 138 135 132 129 126
347 30 57 69 112 207 253 237 233 246 291 320 328 340 360 317 332 344 331 321 344 1 7 353 167 182 187 185 180 174 171 169 169 167 165 163 160 158 158 156 154 151 147 144 140 137 134 132 129
10 51 84 94 163 199 224 250 259 291 307 350 347 356 0 314 341 327 303 303 344 9 5 353 54 143 178 185 183 180 177 175 174 173 172 169 167 164 163 162 159 155 150 146 142 140 138 136 134
63 51 61 116 220 228 238 293 315 326 344 4 360 328 317 317 344 305 305 318 356 5 2 358 17 178 163 176 177 178 180 181 180 178 177 175 173 170 168 166 163 160 155 151 148 146 144 141 139
56 80 94 227 243 252 262 298 333 354 339 342 357 313 285 288 334 337 339 344 351 347 353 1 17 46 187 188 183 175 177 183 184 183 182 181 177 175 173 170 168 165 161 157 154 153 148 145 145
59 76 142 230 247 268 289 310 337 343 321 327 339 304 270 276 349 345 347 339 337 336 341 348 359 11 359 207 182 178 180 183 186 189 189 183 178 177 175 173 172 171 166 162 160 158 154 151 149
105 118 189 220 253 268 306 337 350 305 302 294 289 291 286 302 327 334 336 335 331 334 339 337 338 341 310 250 195 178 177 184 186 187 189 187 181 179 179 176 176 176 172 166 163 161 159 157 154
112 111 175 231 237 249 310 336 305 283 274 283 259 261 279 303 320 328 330 336 323 321 326 320 330 331 299 215 213 184 177 180 185 186 183 182 184 185 182 181 180 179 176 172 167 165 163 162 158
81 98 214 222 220 249 324 328 305 283 268 281 254 246 271 300 313 325 325 320 311 298 298 305 315 317 322 236 219 200 180 179 179 178 175 176 178 182 182 183 183 182 178 177 172 169 166 162 160
90 178 224 222 205 262 296 285 291 305 292 281 282 282 289 296 303 299 300 295 290 287 286 277 271 292 304 273 207 218 190 180 176 173 168 163 164 171 176 181 185 185 181 179 178 171 164 152 149
131 204 249 278 269 280 284 279 267 265 274 262 280 292 298 296 295 288 277 271 268 267 274 276 256 249 259 261 212 200 197 173 169 168 163 156 152 159 164 170 178 180 177 171 171 163 149 144 144
269 254 260 277 292 285 271 276 271 237 250 270 279 283 285 287 284 280 278 273 272 266 268 276 251 235 239 231 226 211 192 178 173 175 170 159 157 162 165 166 168 167 164 158 152 150 149 149 151
278 284 279 276 285 273 270 261 264 258 265 281 288 288 280 276 277 273 270 267 270 267 264 273 266 233 225 224 214 236 204 193 183 179 180 174 172 179 177 176 169 170 164 163 164 160 160 158 157
282 286 288 286 284 282 280 274 262 265 282 298 303 295 287 278 274 274 273 269 269 270 262 255 272 242 220 223 211 217 209 188 183 184 187 186 180 179 183 185 181 181 174 170 171 169 168 168 165
300 311 308 287 284 288 303 292 246 265 301 304 302 296 291 284 278 270 263 260 257 261 260 250 260 259 231 228 223 213 206 192 193 193 192 191 188 183 183 188 191 186 175 169 167 163 163 167 166
7 -0 318 294 300 293 336 283 272 284 304 298 299 300 294 286 277 270 265 263 257 255 255 252 261 270 244 232 233 212 202 199 195 196 194 197 196 191 185 188 197 185 176 176 174 173 173 174 172
27 339 295 298 282 297 271 272 282 293 293 291 294 299 297 297 290 276 267 260 256 252 253 254 255 260 242 230 226 214 200 205 198 200 199 200 201 197 190 192 194 184 182 188 184 179 180 179 176
303 297 284 284 289 290 271 269 284 292 283 281 290 301 305 304 294 283 272 261 256 257 254 253 252 254 242 217 210 212 202 209 201 203 208 204 204 201 195 196 192 187 187 192 189 178 185 181 173
249 259 274 274 280 289 270 277 287 296 293 288 299 303 304 301 300 302 284 282 267 260 256 253 251 254 243 207 197 211 208 213 215 216 211 208 206 203 199 200 193 192 195 194 188 177 177 181 166
250 267 275 284 287 290 285 282 280 286 277 279 291 302 305 308 317 317 311 294 275 268 263 256 249 247 243 220 205 211 211 214 217 216 216 211 209 206 204 200 198 198 197 192 191 178 174 180 175
267 246 265 287 313 299 310 305 299 316 298 291 288 289 304 306 304 311 307 292 278 270 262 263 260 256 247 225 210 218 214 221 216 219 221 216 214 212 209 206 202 202 199 197 193 187 180 183 191
281 250 265 288 318 310 11 313 299 316 315 310 308 314 316 311 306 307 307 298 281 269 265 261 260 255 249 222 205 206 215 230 232 226 226 221 219 215 211 207 204 204 205 200 196 193 190 181 187
262 289 282 281 249 302 326 251 289 317 306 305 310 314 315 317 314 309 306 295 286 274 270 269 267 262 253 227 214 210 219 227 230 230 227 224 223 218 213 208 208 208 208 203 197 195 192 192 191
296 329 353 52 66 316 272 215 292 288 271 302 314 321 319 323 322 316 311 307 306 298 285 277 269 266 255 236 223 215 220 224 226 231 230 228 225 220 216 212 210 212 209 203 200 200 196 197 196
26 30 9 1 1 278 310 264 263 270 269 277 298 312 318 321 321 322 322 320 314 307 293 281 270 269 262 245 234 225 224 219 224 229 230 232 226 224 218 217 213 213 213 206 199 202 202 198 196
350 95 113 281 283 301 318 267 267 274 286 289 297 306 318 321 320 322 321 319 314 305 298 289 279 271 264 250 245 241 237 228 229 229 230 230 228 226 218 216 216 215 213 209 202 204 206 201 200
96 115 156 159 286 289 282 287 301 289 307 316 323 323 321 322 324 324 324 323 318 313 303 291 284 282 271 256 251 249 241 232 234 234 237 234 231 230 220 218 217 215 213 209 204 208 208 201 202
148 142 94 106 335 299 297 283 276 296 302 317 324 325 324 327 327 327 327 324 320 316 309 303 290 283 280 267 261 258 248 235 231 231 234 238 236 230 225 221 217 214 214 210 207 206 207 203 203
114 123 122 131 172 222 293 281 243 258 281 299 310 315 318 321 322 323 324 324 320 321 320 317 308 298 290 276 267 266 254 242 236 230 229 232 239 233 229 222 219 215 216 209 206 210 205 206 203
172 174 150 166 250 221 257 278 275 259 280 298 311 316 319 319 320 322 324 327 329 324 320 321 321 312 301 289 278 272 259 248 239 235 231 230 232 235 236 227 221 217 216 211 205 208 207 204 202
Height
1485 1487 1489 1492 1496 1504 1502 1496 1492 1490 1487 1485 1484 1483 1482 1484 1486 1490 1484 1480 1479 1478 1479 1480 1482 1483 1485 1486 1488 1489 1491 1493 1495 1497 1498 1500 1501 1503 1504 1505 1507 1508 1510 1511 1512 1513 1514 1515 1516
1486 1488 1491 1492 1500 1506 1500 1493 1491 1488 1486 1484 1482 1482 1481 1482 1483 1483 1481 1479 1479 1479 1479 1480 1481 1483 1485 1486 1488 1489 1491 1493 1494 1496 1498 1499 1501 1502 1504 1505 1506 1508 1509 1511 1512 1513 1514 1515 1516
1486 1488 1491 1494 1500 1501 1494 1489 1488 1486 1485 1484 1483 1482 1483 1483 1483 1482 1481 1479 1479 1479 1479 1480 1481 1482 1484 1486 1487 1489 1490 1492 1494 1495 1497 1499 1500 1501 1503 1504 1506 1507 1509 1510 1511 1512 1514 1515 1516
1487 1489 1491 1496 1495 1494 1491 1489 1487 1486 1484 1484 1484 1484 1483 1484 1483 1482 1480 1479 1478 1478 1479 1480 1481 1481 1483 1485 1486 1488 1489 1491 1493 1494 1496 1497 1499 1500 1502 1503 1505 1507 1508 1509 1511 1512 1513 1514 1516
1487 1489 1495 1497 1494 1491 1489 1488 1487 1487 1486 1485 1485 1484 1482 1482 1481 1480 1479 1478 1477 1477 1478 1478 1479 1480 1481 1483 1485 1486 1488 1490 1491 1493 1494 1496 1497 1499 1500 1502 1504 1505 1507 1508 1510 1511 1512 1514 1515
1487 1490 1498 1497 1494 1490 1489 1488 1487 1487 1487 1486 1485 1483 1480 1480 1479 1478 1477 1476 1476 1476 1477 1477 1478 1479 1480 1481 1483 1484 1486 1488 1489 1491 1492 1494 1495 1497 1499 1500 1502 1504 1505 1507 1508 1510 1511 1513 1515
1488 1493 1495 1495 1494 1491 1489 1487 1487 1487 1486 1485 1484 1482 1479 1478 1477 1476 1475 1475 1475 1475 1475 1475 1476 1477 1478 1479 1480 1482 1484 1485 1487 1489 1490 1492 1493 1495 1497 1498 1500 1502 1504 1505 1507 1509 1510 1512 1513
1488 1493 1495 1495 1494 1491 1489 1488 1487 1486 1484 1483 1483 1481 1477 1476 1474 1473 1473 1472 1473 1473 1473 1473 1473 1474 1475 1476 1477 1479 1481 1483 1485 1486 1488 1489 1491 1493 1495 1496 1498 1500 1502 1503 1505 1507 1509 1511 1512
1488 1496 1496 1493 1492 1490 1488 1487 1486 1484 1483 1481 1480 1479 1476 1474 1472 1471 1470 1469 1469 1470 1470 1470 1470 1471 1472 1473 1474 1476 1478 1480 1481 1483 1485 1487 1488 1490 1492 1494 1496 1497 1499 1501 1503 1505 1507 1509 1511
1489 1495 1491 1489 1488 1488 1487 1486 1485 1482 1480 1477 1475 1474 1472 1471 1469 1467 1466 1465 1465 1465 1466 1466 1467 1467 1468 1469 1471 1472 1474 1476 1478 1480 1482 1483 1485 1487 1489 1491 1493 1495 1497 1499 1501 1503 1504 1507 1509
1489 1491 1488 1487 1487 1486 1485 1484 1483 1481 1477 1474 1472 1469 1468 1466 1465 1464 1463 1462 1461 1461 1461 1462 1463 1463 1464 1465 1466 1468 1470 1472 1474 1476 1478 1480 1482 1484 1485 1487 1490 1492 1494 1496 1498 1500 1502 1504 1507
1489 1488 1487 1486 1486 1485 1483 1481 1480 1477 1473 1471 1469 1466 1464 1462 1461 1460 1459 1458 1457 1457 1456 1458 1458 1459 1460 1461 1462 1463 1465 1467 1470 1472 1474 1476 1478 1480 1482 1484 1486 1488 1491 1492 1495 1497 1499 1501 1504
1489 1487 1486 1484 1483 1482 1480 1478 1476 1471 1469 1468 1465 1462 1460 1459 1457 1456 1455 1454 1454 1453 1452 1453 1454 1455 1456 1457 1458 1459 1461 1463 1465 1467 1470 1472 1474 1476 1477 1480 1482 1484 1487 1489 1491 1494 1496 1499 1501
1488 1486 1484 1482 1480 1479 1478 1473 1473 1465 1465 1463 1461 1458 1456 1455 1453 1451 1450 1450 1449 1448 1448 1448 1449 1450 1451 1452 1453 1455 1456 1458 1460 1462 1465 1468 1470 1471 1473 1476 1478 1480 1483 1485 1488 1490 1493 1495 1498
1487 1486 1483 1480 1478 1477 1476 1470 1466 1462 1462 1460 1457 1454 1452 1450 1449 1447 1446 1445 1445 1445 1444 1444 1445 1446 1446 1447 1449 1450 1451 1453 1455 1458 1460 1463 1465 1467 1469 1471 1474 1477 1479 1482 1484 1486 1489 1492 1495
1487 1488 1486 1479 1477 1475 1478 1471 1460 1460 1459 1456 1453 1450 1448 1445 1444 1442 1442 1441 1440 1440 1440 1440 1441 1441 1443 1443 1443 1445 1447 1449 1451 1453 1456 1458 1460 1463 1465 1467 1470 1473 1475 1478 1480 1482 1485 1488 1491
1492 1493 1489 1481 1475 1475 1475 1469 1457 1457 1456 1452 1450 1447 1444 1441 1439 1438 1437 1437 1436 1436 1436 1436 1436 1437 1438 1438 1440 1440 1442 1444 1446 1448 1451 1453 1455 1458 1460 1462 1465 1468 1471 1473 1476 1478 1481 1484 1487
1493 1493 1489 1484 1476 1474 1472 1465 1455 1453 1452 1449 1446 1444 1441 1438 1436 1434 1433 1432 1432 1432 1432 1432 1433 1433 1433 1434 1435 1436 1437 1439 1442 1443 1445 1447 1450 1452 1455 1457 1460 1463 1466 1469 1471 1473 1477 1480 1483
1491 1491 1489 1481 1474 1474 1467 1460 1452 1448 1448 1446 1444 1441 1438 1436 1433 1432 1431 1429 1428 1428 1428 1427 1427 1428 1429 1429 1430 1431 1432 1434 1436 1438 1440 1442 1444 1447 1449 1452 1455 1458 1460 1463 1466 1469 1472 1475 1479
1489 1489 1485 1477 1472 1471 1465 1457 1449 1447 1445 1443 1441 1439 1437 1434 1430 1429 1427 1426 1425 1424 1423 1423 1423 1423 1424 1424 1425 1427 1427 1429 1431 1432 1434 1436 1438 1441 1443 1446 1449 1452 1455 1458 1461 1464 1466 1470 1473
1484 1485 1482 1478 1473 1469 1467 1454 1448 1445 1443 1442 1440 1438 1436 1433 1429 1427 1425 1423 1421 1420 1419 1419 1418 1418 1419 1420 1421 1422 1423 1424 1425 1427 1428 1431 1433 1435 1438 1440 1443 1446 1449 1452 1455 1459 1462 1464 1468
1483 1478 1477 1476 1479 1476 1473 1468 1451 1447 1443 1439 1437 1435 1433 1430 1427 1425 1422 1420 1418 1417 1416 1415 1414 1413 1414 1415 1415 1416 1417 1418 1420 1422 1423 1425 1427 1429 1431 1434 1437 1440 1443 1446 1450 1453 1457 1460 1462
1480 1476 1476 1476 1478 1480 1475 1475 1457 1449 1444 1438 1435 1433 1431 1429 1426 1423 1420 1418 1416 1414 1412 1410 1409 1409 1409 1410 1410 1411 1412 1414 1415 1417 1418 1419 1420 1423 1425 1428 1431 1433 1436 1440 1444 1447 1451 1454 1456
1478 1477 1476 1479 1482 1481 1474 1475 1461 1451 1443 1438 1434 1432 1430 1428 1425 1421 1418 1415 1412 1410 1408 1406 1405 1405 1404 1404 1405 1406 1407 1408 1409 1410 1411 1412 1414 1416 1419 1422 1425 1428 1430 1434 1437 1441 1445 1448 1451
1482 1485 1486 1485 1489 1480 1473 1472 1459 1445 1441 1438 1435 1432 1429 1426 1423 1419 1415 1412 1409 1407 1405 1403 1402 1400 1400 1400 1400 1400 1401 1401 1403 1404 1405 1407 1408 1410 1412 1415 1418 1422 1424 1428 1431 1435 1439 1442 1445
1484 1487 1495 1494 1493 1482 1475 1471 1453 1442 1439 1437 1435 1432 1428 1425 1421 1418 1414 1411 1407 1404 1402 1399 1397 1395 1395 1395 1395 1395 1395 1396 1397 1398 1399 1401 1402 1404 1406 1409 1413 1416 1419 1422 1425 1428 1432 1436 1439
1485 1489 1490 1497 1498 1495 1480 1469 1451 1438 1436 1434 1433 1430 1426 1423 1420 1416 1412 1408 1404 1400 1397 1395 1392 1391 1390 1390 1390 1390 1390 1390 1391 1392 1394 1395 1396 1398 1401 1403 1407 1409 1413 1416 1419 1422 1426 1429 1433
1484 1488 1495 1498 1498 1491 1477 1471 1457 1442 1438 1434 1432 1429 1425 1422 1417 1413 1409 1405 1401 1397 1394 1391 1389 1387 1386 1386 1385 1385 1384 1384 1385 1385 1386 1387 1389 1392 1395 1397 1401 1403 1407 1410 1413 1416 1420 1423 1426
1486 1488 1490 1497 1497 1495 1486 1463 1445 1442 1437 1435 1432 1428 1425 1421 1417 1412 1407 1403 1398 1395 1391 1388 1386 1384 1382 1381 1380 1380 1379 1379 1379 1379 1380 1381 1383 1386 1389 1391 1394 1397 1400 1403 1406 1409 1413 1416 1420
1483 1485 1489 1495 1496 1496 1489 1462 1439 1438 1435 1434 1431 1427 1423 1419 1415 1410 1405 1401 1396 1392 1389 1386 1383 1381 1379 1377 1376 1375 1374 1374 1374 1374 1375 1377 1379 1381 1383 1385 1388 1390 1393 1396 1399 1402 1405 1409 1412